Location: *
(45.9500°N, 9.0833°E)
Time: 23:15:19
(UTC+00:00)

Tiros 1 despin weight - Pass Details

Date: 26 June 2021
Orbit: 593 x 642 km, 48.2° (Epoch: 02 August)

Event Time Altitude Azimuth Distance (km) Brightness Sun altitude
Rises 03:54:39 0° 251° (WSW) 2,839 ? 2.0°
Reaches altitude 10° 03:56:57 10° 251° (WSW) 1,932 ? 2.4°
Maximum altitude 04:01:23 90° 216° (SW) 599 ? 3.0°
Drops below altitude 10° 04:05:48 10° 73° (ENE) 1,925 ? 3.7°
Sets 04:08:05 0° 73° (ENE) 2,827 ? 4.0°
